Starlink 3154

operational
NORAD ID: 49417 Int'l Des: 2021-104 Owner: SPXS Country: US Constellation: starlink
LEOCIRCULAR

About Starlink 3154

Description loading...

Live Position

Loading 3D Globe...

Upcoming Passes

Altitude History

Altitude vs Time

uPlot chart will show altitude changes over time

Two-Line Element Set

1 49417U 21104K 25303.77186558 .00000774 00000-0 66733-4 0 9990
2 49417 53.2165 81.9950 0001475 90.2174 269.8987 15.08839234219151
Epoch: Oct 30, 2025 • Age: 6 hours

Current Status

Altitude 539.6 km
Velocity 7.60 km/s
Sub-Earth Point 14.94°N, 38.15°E
Launch Date Nov 13, 2021
Age 3.9 years
Type internet

Technical Details

Classification Payload
Mass 290.00 kg
Dry Mass 270.00 kg
Total Mass 290.00 kg
Length 0.20 m
Diameter 2.80 m
Span 9.00 m
Shape Box + pan
Manufacturer SPXS
Bus Type Starlink
Phase Status In Orbit
Owner/State SPXS/US

Large Constellations

Loading constellations...